N0REH Weather Reports


Display with metric or nautical units.
time (UTC)temp
F
wind
direction
speed
MPH
gust
MPH
rain 1hr
in
rain 24hr
in
rain mn
in
humidity
%
barometer
mb
20230129084512 1 336 0.0 4.0 0.00 0.00 0.00 67 1032.3
20230129083006 2 44 1.0 8.0 0.00 0.00 0.00 66 1032.1
20230129081543 2 340 1.0 8.0 0.00 0.00 0.00 66 1032.0
20230129080038 2 349 2.0 8.0 0.00 0.00 0.00 65 1031.5
20230129074528 2 342 4.0 13.0 0.00 0.00 0.00 64 1031.4
20230129073018 2 298 4.0 7.0 0.00 0.00 0.00 65 1031.4
20230129071512 2 304 2.0 12.0 0.00 0.00 0.00 66 1031.3
20230129070009 2 336 3.0 8.0 0.00 0.00 0.00 66 1030.9
20230129064503 2 12 2.0 8.0 0.00 0.00 0.00 66 1030.9
20230129063059 3 6 2.0 9.0 0.00 0.00 0.00 64 1031.0
20230129061554 3 327 2.0 12.0 0.00 0.00 0.00 65 1030.9
20230129060049 4 22 2.0 8.0 0.00 0.00 0.00 65 1030.9
20230129054527 4 347 2.0 7.0 0.00 0.00 0.00 67 1031.1
20230129053035 4 310 0.0 4.0 0.00 0.00 0.00 68 1031.0
20230129051507 4 319 3.0 7.0 0.00 0.00 0.00 65 1031.0
20230129050002 4 26 1.0 8.0 0.00 0.00 0.00 65 1031.0
20230129044603 4 342 2.0 6.0 0.00 0.00 0.00 65 1031.1
20230129043053 4 290 2.0 6.0 0.00 0.00 0.00 67 1031.1
20230129041550 4 326 4.0 7.0 0.00 0.00 0.00 68 1031.0
20230129040044 4 321 3.0 6.0 0.00 0.00 0.00 71 1031.1
20230129034539 4 311 1.0 3.0 0.00 0.00 0.00 71 1031.1
20230129033035 4 314 1.0 5.0 0.00 0.00 0.00 71 1031.0
20230129031518 4 314 1.0 6.0 0.00 0.00 0.00 70 1030.9
20230129030019 5 316 0.0 6.0 0.00 0.00 0.00 70 1030.7
20230129024509 5 10 2.0 6.0 0.00 0.00 0.00 68 1030.7
20230129023005 6 304 1.0 6.0 0.00 0.00 0.00 67 1030.7
20230129021608 6 25 1.0 5.0 0.00 0.00 0.00 66 1030.5
20230129020057 6 27 0.0 3.0 0.00 0.00 0.00 66 1030.3
20230129014552 6 334 1.0 5.0 0.00 0.00 0.00 66 1030.2
20230129013047 6 4 1.0 4.0 0.00 0.00 0.00 66 1030.0
20230129011557 6 4 2.0 5.0 0.00 0.00 0.00 66 1029.9
20230129010036 6 36 0.0 5.0 0.00 0.00 0.00 66 1029.7
20230129004521 6 333 2.0 5.0 0.00 0.00 0.00 66 1029.6
20230129003020 6 20 1.0 6.0 0.00 0.00 0.00 66 1029.4
20230129001512 6 349 3.0 6.0 0.00 0.00 0.00 66 1029.2
20230129000013 6 345 2.0 5.0 0.00 0.00 0.00 67 1028.8
20230128234503 6 338 0.0 5.0 0.00 0.00 0.00 67 1028.5
20230128233116 6 44 0.0 5.0 0.00 0.00 0.00 67 1028.3
20230128231559 6 314 3.0 11.0 0.00 0.00 0.00 66 1028.0
20230128230032 6 29 1.0 7.0 0.00 0.00 0.00 68 1027.8
20230128224529 6 33 4.0 8.0 0.00 0.00 0.00 67 1027.6
20230128223006 6 358 4.0 9.0 0.00 0.00 0.00 67 1027.5
20230128221502 6 37 1.0 9.0 0.00 0.00 0.00 68 1027.8
20230128220047 6 17 4.0 8.0 0.00 0.00 0.00 67 1027.8
20230128214541 7 4 2.0 6.0 0.00 0.00 0.00 67 1027.8
20230128213037 7 23 2.0 5.0 0.00 0.00 0.00 67 1027.9
20230128211536 7 9 2.0 8.0 0.00 0.00 0.00 67 1027.6
20230128210027 7 25 4.0 9.0 0.00 0.00 0.00 67 1027.5
20230128204524 7 332 3.0 7.0 0.00 0.00 0.00 68 1027.4
20230128203019 6 34 5.0 9.0 0.00 0.00 0.00 68 1027.2
20230128201519 6 13 5.0 10.0 0.00 0.00 0.00 68 1027.2
20230128200101 6 318 2.0 10.0 0.00 0.00 0.00 68 1027.3
20230128194552 6 20 4.0 9.0 0.00 0.00 0.00 68 1027.6
20230128193039 6 336 1.0 8.0 0.00 0.00 0.00 68 1027.7
20230128191528 6 333 3.0 10.0 0.00 0.00 0.00 69 1027.8
20230128190032 6 37 4.0 8.0 0.00 0.00 0.00 69 1027.9
20230128184519 5 20 6.0 10.0 0.00 0.00 0.00 70 1028.1
20230128183032 5 60 4.0 8.0 0.00 0.00 0.00 70 1028.4
20230128181513 5 357 3.0 5.0 0.00 0.00 0.00 71 1028.5
20230128180004 5 27 2.0 5.0 0.00 0.00 0.00 71 1028.7
20230128174606 5 309 1.0 5.0 0.00 0.00 0.00 71 1028.8
20230128173038 5 334 1.0 6.0 0.00 0.00 0.00 72 1028.9
20230128171543 4 56 0.0 6.0 0.00 0.00 0.00 72 1028.9
20230128170010 4 353 2.0 6.0 0.00 0.00 0.00 73 1028.9
20230128164501 3 319 1.0 6.0 0.00 0.00 0.00 74 1028.8
20230128163056 3 17 2.0 7.0 0.00 0.00 0.00 74 1028.6
20230128161552 3 60 2.0 8.0 0.00 0.00 0.00 75 1028.2
20230128160052 3 5 5.0 11.0 0.00 0.00 0.00 75 1027.9
20230128154547 3 43 1.0 6.0 0.00 0.00 0.00 75 1027.7
20230128153038 2 13 4.0 9.0 0.00 0.00 0.00 75 1027.6
20230128151535 3 338 4.0 8.0 0.00 0.00 0.00 76 1027.1
20230128150016 3 40 3.0 7.0 0.00 0.00 0.00 77 1026.9
20230128144512 2 29 2.0 5.0 0.00 0.00 0.00 77 1026.7
20230128143007 2 33 3.0 7.0 0.00 0.00 0.00 78 1026.2
20230128141505 2 26 1.0 8.0 0.00 0.00 0.00 78 1025.8
20230128140101 2 20 1.0 6.0 0.00 0.00 0.00 77 1025.6
20230128134559 3 60 3.0 9.0 0.00 0.00 0.00 77 1025.4
20230128133058 3 20 1.0 5.0 0.00 0.00 0.00 78 1025.1
20230128131546 3 23 3.0 6.0 0.00 0.00 0.00 78 1024.9
20230128130023 3 311 1.0 5.0 0.00 0.00 0.00 78 1024.5
20230128124519 3 319 3.0 6.0 0.00 0.00 0.00 77 1024.0
20230128123058 4 41 0.0 4.0 0.00 0.00 0.00 77 1023.8
20230128121558 4 57 2.0 6.0 0.00 0.00 0.00 77 1023.6
20230128120038 4 34 2.0 6.0 0.00 0.00 0.00 77 1023.4
20230128114527 4 20 1.0 6.0 0.00 0.00 0.00 77 1023.5
20230128113010 5 56 0.0 5.0 0.00 0.00 0.00 78 1023.4
20230128111508 5 61 0.0 5.0 0.00 0.00 0.00 78 1023.3
20230128110006 5 327 2.0 6.0 0.00 0.00 0.00 78 1023.5
20230128104504 6 43 1.0 6.0 0.00 0.00 0.00 79 1023.4
20230128103002 6 322 2.0 5.0 0.00 0.00 0.00 78 1023.3
20230128101601 6 320 1.0 10.0 0.00 0.00 0.00 77 1023.3
20230128100111 6 301 3.0 9.0 0.00 0.00 0.00 77 1023.3
20230128094607 7 278 2.0 11.0 0.00 0.00 0.00 77 1023.1
20230128093043 7 315 2.0 9.0 0.00 0.00 0.00 77 1023.0
20230128091540 7 297 1.0 9.0 0.00 0.00 0.00 78 1022.6
20230128090037 7 319 3.0 9.0 0.00 0.00 0.00 79 1022.4